Regional Weather Roundup
Issued by NWS Sterling, VA

Home | Current Version | Previous Version | Text Only | Print | Product List | Glossary On
Versions: 1 2 3 4 5 6 7 8 9 10 11 12 13 14 15 16 17 18 19 20 21 22 23 24 25 26 27 28 29 30 31 32 33 34 35 36 37 38 39 40 41 42 43 44 45 46 47 48 49 50
000
ASUS41 KLWX 121610
RWRLWX

REGIONAL WEATHER ROUNDUP
NATIONAL WEATHER SERVICE BALTIMORE MD/WASHINGTON DC
1100 AM EST FRI FEB 12 2016

Note: "FAIR" indicates few or no clouds below 12,000 feet
with no significant weather and/or obstructions to visibility.
 TC=TEMPERATURE CELSIUS

 * =Non NWS site. Station does not report precipitation (e.g. rain,
    snow, etc.), thunder, or fog.

DCZ001-MDZ009-015-VAZ040>042-051-053>054-121700-
WASHINGTON METRO

CITY           SKY/WX    TMP DP  RH WIND       PRES   REMARKS
WASHINGTON NAT CLOUDY    25   5  42 SE5       30.26F
DULLES         PTSUNNY   25   5  42 S9        30.22F WCI  15
ANDREWS AFB    MOSUNNY   26   3  37 VRB3      30.23F
FT BELVOIR     CLOUDY    26   3  37 VRB7      30.25F
QUANTICO       CLOUDY    27  10  49 S8        30.27F WCI  19
COLLEGE PARK*  FAIR      27   3  36 CALM      30.24F
LEESBURG*      PTSUNNY   28  10  47 SW7       30.22F
MANASSAS*      MOSUNNY   27   9  46 S7        30.23F
GAITHERSBURG*  PTSUNNY   23   3  42 S3        30.25F

$$

MDZ006>007-011-014-121700-
BALTIMORE METRO

CITY           SKY/WX    TMP DP  RH WIND       PRES   REMARKS
BWI AIRPORT    PTSUNNY   23   1  38 VRB6      30.25F
MD SCIENCE CTR   N/A     25   3  38 MISG      30.27F
MARTIN STATE   PTSUNNY   25   7  46 CALM      30.29F
ANNAPOLIS      MOSUNNY   26   5  40 CALM      30.27F
FORT MEADE*    MOSUNNY   27   3  36 NW5       30.27F

$$

MDZ012-015-019>023-121700-
MARYLAND EASTERN SHORE

CITY           SKY/WX    TMP DP  RH WIND       PRES   REMARKS
OCEAN CITY     CLOUDY    24   3  40 VRB3      30.29F
SALISBURY      CLOUDY    26   6  42 W5        30.28F
BAY BRIDGE AP*   N/A     27   3  36 CALM      30.26F
CAMBRIDGE*     SUNNY     27   5  39 CALM      30.26F
EASTON*        MOSUNNY   27   7  43 CALM      30.30F

$$

MDZ017>025-121700-
SOUTHERN MARYLAND

CITY           SKY/WX    TMP DP  RH WIND       PRES   REMARKS
PATUXENT RIVER CLOUDY    26   2  35 VRB5      30.27F
ST INIGOES     CLOUDY    25   5  42 SW6       30.27F
LEONARDTOWN*     N/A     27   3  36 MISG      30.27F

$$

MDZ003>005-121700-
NORTH CENTRAL MARYLAND

CITY           SKY/WX    TMP DP  RH WIND       PRES   REMARKS
FREDERICK*     PTSUNNY   23   9  54 SW3       30.25F
HAGERSTOWN APT PTSUNNY   20   7  57 E3        30.18F
WESTMINSTER*   PTSUNNY   21  10  63 CALM      30.18F

$$

MDZ501>502-121700-
WESTERN MARYLAND

CITY           SKY/WX    TMP DP  RH WIND       PRES   REMARKS
OAKLAND*       CLOUDY    12   3  67 W6        29.96F
CUMBERLAND*    CLOUDY    21  10  63 CALM      30.20F

$$

VAZ025>031-121700-
SHENANDOAH VALLEY

CITY           SKY/WX    TMP DP  RH WIND       PRES   REMARKS
WINCHESTER*    CLOUDY    27   9  46 S3        30.16F
FRONT ROYAL*   CLOUDY    27   7  43 CALM      30.16F
LURAY*         CLOUDY    27   9  46 S9        30.15F WCI  17
NEW MARKET*    CLOUDY    25   8  48 SW7       30.13F
STAUNTON*      CLOUDY    30  10  43 SW7       30.15F
WAYNESBORO*    PTSUNNY   26   5  41 SE7       30.12F

$$

WVZ021-048>050-054>055-121700-
EASTERN WEST VIRGINIA PANHANDLE

CITY           SKY/WX    TMP DP  RH WIND       PRES   REMARKS
MARTINSBURG    FAIR      24   5  44 S6        30.18F
PETERSBURG*    PTSUNNY   23   9  55 CALM      30.13F

$$

VAZ036>039-050-121700-
CENTRAL FOOTHILLS

CITY           SKY/WX    TMP DP  RH WIND       PRES   REMARKS
CHARLOTTESVILL CLOUDY    26   4  38 S9        30.20F WCI  17
CULPEPER*      CLOUDY    27   6  40 S6        30.23F
ORANGE*        CLOUDY    30   5  34 S5        30.23F
GORDONSVILLE*  CLOUDY    26   4  40 SW6       30.21F
WARRENTON*     PTSUNNY   28  10  46 S7        30.21F

$$

VAZ055>057-121700-
NORTH AND CENTRAL PIEDMONT

CITY           SKY/WX    TMP DP  RH WIND       PRES   REMARKS
FREDERICKSBRG* FAIR      27   6  41 S7        30.25F
STAFFORD*      FAIR      27   3  36 S3        30.28F

$$

NCZ024-NYZ072-PAZ021-071-VAZ022-071-121700-
OTHER REGIONAL OBSERVATIONS

CITY           SKY/WX    TMP DP  RH WIND       PRES   REMARKS
NEW YORK CITY  SUNNY     22  -3  33 VRB7      30.23F
PHILADELPHIA   PTSUNNY   22  -1  36 W5        30.27F
PITTSBURGH     CLOUDY    17   5  59 SW12      30.09F WCI   4
ROANOKE        FAIR      27   6  41 SE8       30.18F WCI  19
RICHMOND       CLOUDY    25   5  42 S8        30.26F WCI  16
RALEIGH        CLOUDY    29   8  41 E3        30.22F

$$

ANZ530>537-121700-
MARINE OBSERVATIONS

STATION/POSITION TIME  TEMP    WIND        PRES
                       AIR SEA DIR/SP/G
                 (UTC) (F)     (DEG/KT/KT) (MB)
THOMAS PT LIGHT  1600   22 36  120/  3/  4 1025.5F
BALT KEY BRIDGE  1500   21     190/  3/  4 1026.0F
COVE POINT       1500   22      30/  4/  5 1026.8F
LEWISETTA        1500   24 38   10/  2/  3 1026.0F
SOLOMONS ISLAND  1500   23 38  340/  4/  6   N/A
PINEY POINT      1500          140/  1/  2   N/A

$$




USA.gov is the U.S. government's official web portal to all federal, state and local government web resources and services.